Погода в Беляевке

Россия / Оренбургская область     51°23′49″N   56°24′28″E
темп.,
°C
ветер,
м/с
пор.,
м/с
влажн.,
%
обл.,
%
осадки,
мм/ч
давл.,
гПа
погр.,
м
14 мая, пт
пт1423:00+17в22480 0.0 102612
02:00+16в22460 0.0 102611
05:00+14вюв22470 0.0 102711
08:00+19вюв22430 0.0 1027123
11:00+25юв22320 0.0 1027673
14:00+27ю23230 0.0 10262097
17:00+28ююз22220 0.0 10252228
20:00+24зюз00340 0.0 102511
15 мая, сб
сб1523:00+19в22410 0.0 102511
02:00+17вюв22450 0.0 102511
05:00+16в22450 0.0 102511
08:00+20вюв22430 0.0 1026112
11:00+26юв32300 0.0 1025692
14:00+29ююз11240 0.0 10242479
17:00+29ссв12232 0.0 10232790
20:00+24всв34432 0.0 102349
16 мая, вс
вс1623:00+20в22370 0.0 102313
02:00+19в22400 0.0 102211
05:00+17вюв11441 0.0 102311
08:00+22в22435 0.0 1024116
11:00+27юв32323 0.0 1023651
14:00+30ююв12255 0.0 10223188
17:00+30св23225 0.0 10213078
20:00+25всв224624 0.0 102030
17 мая, пн
пн1723:00+19юз22574 0.0 102224
02:00+18ссв225511 0.0 102211
05:00+17всв115667 0.0 102111
08:00+21юв11505 0.0 1022143
11:00+27ююв22375 0.0 1021720
14:00+30ююз24275 0.0 10203047
17:00+30зюз34243 0.0 10193416
20:00+26сз11360 0.0 101811
18 мая, вт
вт1823:00+20св215435 0.0 101912
02:00+19юв335217 0.0 101926
05:00+18в11545 0.0 101911
08:00+22юв11483 0.0 1019138
11:00+27с11375 0.0 1018754
14:00+29с32305 0.0 10172488
17:00+30ссв33301 0.0 10172679
20:00+24всв34556 0.0 101669